Flag for Germany Weather past 2 weeks in Cottbus, Brandenburg, Germany

Now
63 °F

Clear.


Feels Like: 63 °F
Forecast: 66 / 82 °F
Wind: 2 mph from East

Location: Cottbus

Current Time: Aug 4, 2015 at 4:22:40 AM

Latest Report: Aug 4, 2015 at 4:00 AM


Visibility: 11 mi

Pressure: 29.99 "Hg

Humidity: 78%

Dew point: 56 °F

Location of CottbusLocation

Historic Weather in Cottbus — Graph

°F

Cottbus temperature yesterday

Maximum temperature yesterday: 89 °F (at 5:00 PM)
Minimum temperature yesterday: 54 °F (at 6:00 AM)
Average temperature yesterday: 74 °F

Past Weeks' High & Low Weather Summary

 TemperatureHumidityPressure
High89 °F (Aug 3, 5:00 PM)99% (Jul 23, 3:00 AM)30.10 "Hg (Jul 23, 3:00 AM)
Low45 °F (Aug 1, 4:00 AM)26% (Aug 3, 5:00 PM)29.58 "Hg (Jul 27, 3:00 PM)
Average68 °F62%29.88 "Hg
* Reported Jul 20 3:00 AM — Aug 4 3:00 AM, Cottbus, Weather by CustomWeather, © 2015

Note: Actual official high and low records may vary slightly from our data, if they occured in-between our weather recording intervals... More about our weather records

Advertising

Cottbus weather history for previous 24 hours

 ConditionsComfort  
Time TempWeatherWind HumidityBarometerVisibility
3:00 AM
Tue, Aug 4
63 °FClear.1 mph81%30.00 "Hg12 mi
2:00 AM64 °FClear.1 mph75%30.01 "Hg15 mi
1:00 AM68 °FClear.1 mph62%30.02 "Hg19 mi
11:00 PM
Mon, Aug 3
69 °FClear.2 mph66%30.02 "Hg19 mi
10:00 PM71 °FClear.1 mph58%30.03 "Hg19 mi
9:00 PM77 °FClear.2 mph51%30.01 "Hg25 mi
8:00 PM86 °FSunny.2 mph31%30.01 "Hg31 mi
7:00 PM88 °FSunny.2 mph28%30.01 "Hg37 mi
6:00 PM89 °FSunny.3 mph26%30.02 "Hg31 mi
5:00 PM89 °FOvercast.5 mph26%30.03 "Hg28 mi
4:00 PM87 °FOvercast.2 mph30%30.04 "Hg25 mi
3:00 PM87 °FOvercast.3 mph31%30.05 "Hg25 mi
2:00 PM87 °FPartly sunny.3 mph34%30.06 "Hg16 mi
1:00 PM85 °FOvercast.1 mph35%30.08 "Hg22 mi
12:00 PM82 °FOvercast.1 mph39%30.09 "Hg25 mi
11:00 AM80 °FOvercast.1 mph45%30.09 "Hg18 mi
10:00 AM75 °FScattered clouds.2 mph51%30.10 "Hg18 mi
9:00 AM71 °FSunny.1 mph55%30.10 "Hg16 mi
8:00 AM65 °FSunny.1 mph61%30.10 "Hg13 mi
7:00 AM60 °FSunny.1 mph77%30.10 "Hg12 mi
6:00 AM54 °FSunny.1 mph91%30.10 "Hg9 mi
5:00 AM55 °FPassing clouds.1 mph86%30.10 "Hg11 mi
4:00 AM57 °FClear.1 mph83%30.09 "Hg13 mi
Weather by CustomWeather, © 2015

See weather overviewHow to use our weather pages